Volver al catálogo

COSMOS 2251 DEB

ActivoLEO
NORAD 34307·DEBRIS·🇷🇺 Russia

Lanzado Jun 16, 1993 desde Plesetsk Cosmodrome

Loading…

Próximos Pases (próximas 24 horas)

TLE

ActualizadoSource: Space-Track

Época: Sep 14, 2026, 08:53 UTC

1 34307U 93036ND  26257.37050174  .00001139  00000-0  10354-2 0  9996
2 34307  74.0510 230.6449 0391732   1.3308 147.9442 13.54752174865946

Sigue COSMOS 2251 DEB en tiempo real con AllMySat

Download on the App Store